Wind_Speed
53 50 47 46 44 41 38 39 39 37 35 32 27 24 24 22 24 19 13 11 13 12 11 10 9 8 8 9 9 10 12 12 13 13 14 14 14 14 14 14 13 13 14 14 14 14 14 15 17
56 54 51 49 46 43 39 40 39 37 32 27 24 24 26 26 24 20 15 12 14 13 12 11 11 11 11 12 13 12 12 12 12 13 13 14 15 14 14 14 14 14 14 15 15 15 16 16 17
59 58 54 52 48 41 38 43 41 37 33 32 31 31 32 25 23 21 18 15 16 15 14 14 14 14 13 12 14 14 12 12 13 14 14 14 14 14 15 15 16 16 16 16 16 17 17 17 18
61 62 58 56 49 41 39 44 45 41 34 33 33 33 29 24 23 22 19 16 17 17 16 16 17 16 15 14 13 13 14 14 13 13 14 15 17 17 16 16 16 16 16 15 16 16 16 17 17
61 64 62 58 51 42 46 44 47 42 38 36 36 34 31 27 26 25 23 18 19 20 19 18 19 18 16 15 14 14 14 15 15 15 17 18 18 17 16 17 16 16 16 16 16 16 17 18 18
55 63 62 58 51 44 49 47 46 43 39 34 38 36 32 29 28 27 25 22 22 23 22 21 20 20 19 17 16 14 13 13 15 19 20 19 17 17 18 17 17 17 17 17 17 18 18 18 18
54 56 58 53 50 47 47 47 48 44 34 35 40 37 34 33 31 29 26 25 24 25 24 23 22 21 20 18 16 16 16 16 16 18 19 18 16 16 17 17 17 18 18 18 18 18 17 17 17
50 51 55 54 49 47 44 47 42 43 38 38 42 40 34 32 31 31 30 26 25 25 25 24 23 21 20 19 18 18 19 20 20 18 17 17 17 17 17 18 19 19 19 19 19 19 18 17 17
46 52 51 48 53 46 51 48 50 44 42 42 44 40 36 33 33 32 31 29 27 27 26 24 23 22 21 20 21 21 21 22 22 21 17 15 15 18 18 19 20 21 22 21 20 20 20 20 20
45 48 46 37 38 47 48 43 46 45 44 44 42 39 36 35 32 29 31 30 28 27 26 26 25 24 22 22 24 24 24 23 22 21 20 18 17 17 18 19 20 21 21 21 22 22 22 23 23
55 47 45 40 41 38 35 48 32 48 47 48 42 38 38 36 35 36 33 32 30 29 28 26 26 25 23 25 25 25 24 23 23 22 21 19 19 20 20 20 20 21 22 22 22 22 23 24 25
50 56 52 41 47 49 47 33 27 33 46 48 45 42 42 40 38 36 34 33 31 30 29 28 26 25 25 26 26 25 24 23 22 23 23 22 21 23 24 24 24 24 24 24 24 23 24 26 26
51 48 54 50 49 37 47 46 52 28 33 46 47 43 41 39 36 34 34 33 32 31 30 30 27 28 27 25 25 24 24 24 24 22 24 24 22 23 24 25 24 25 26 25 26 27 26 28 28
49 51 51 49 50 43 38 44 48 45 37 39 48 45 38 38 37 36 34 34 32 33 32 30 29 29 27 26 26 24 24 26 26 23 23 24 25 25 26 26 26 27 28 28 28 29 29 30 30
53 48 53 42 44 44 43 40 34 38 45 47 43 40 38 38 39 37 36 36 36 33 32 30 30 29 28 27 26 27 26 25 24 25 24 25 27 28 28 29 28 30 30 31 31 31 32 33 33
52 51 50 43 41 44 43 37 41 39 45 44 42 43 40 41 40 39 37 37 36 35 32 29 31 31 28 28 28 28 27 27 27 27 29 29 31 32 33 33 33 34 33 34 35 35 35 35 35
48 48 49 46 38 42 43 40 43 43 43 45 45 44 41 41 40 39 39 39 38 37 33 28 28 31 31 30 28 29 31 29 30 31 31 32 33 34 35 35 35 37 37 37 37 39 41 42 41
35 36 44 45 45 40 47 46 45 46 45 43 44 45 42 40 38 38 39 39 39 36 33 32 31 30 32 35 34 30 33 34 32 32 34 34 33 33 35 37 38 40 41 42 42 42 43 43 45
32 37 40 43 45 43 44 48 47 44 45 41 40 41 44 41 42 41 38 38 37 35 34 35 37 35 34 34 36 35 34 35 36 36 35 36 38 38 38 38 40 41 43 45 47 46 46 46 47
32 36 39 43 46 46 40 45 46 45 43 44 41 40 43 44 40 40 39 37 37 38 38 38 38 38 38 38 38 38 35 33 34 37 39 42 42 40 40 41 42 43 44 45 46 48 48 46 49
29 32 38 43 43 48 42 40 43 43 43 41 40 41 40 42 45 43 39 37 39 40 41 40 40 40 40 40 38 38 38 37 35 36 38 42 45 46 45 44 43 45 47 47 49 49 49 50 51
26 33 40 40 40 43 40 39 41 45 45 43 39 41 44 42 43 42 39 36 37 38 40 42 42 42 41 39 38 38 39 38 38 38 39 41 44 46 47 46 45 46 47 49 51 52 52 52 54
26 32 37 39 39 41 39 40 36 44 41 43 41 39 40 38 37 34 35 38 38 39 40 42 42 39 37 37 37 38 38 40 40 41 40 43 43 43 44 45 46 46 46 47 48 51 54 56 58
23 31 35 39 42 41 34 35 34 39 43 43 42 38 39 39 37 36 35 34 35 37 38 38 38 37 35 35 36 37 39 40 41 42 41 41 42 41 40 41 43 44 46 48 51 54 56 57 58
23 23 35 38 42 39 34 37 35 37 42 43 38 35 36 37 39 38 37 36 35 34 33 33 34 35 36 37 39 40 40 41 40 40 40 41 39 40 40 39 40 44 48 49 47 48 53 59 64
21 18 25 37 37 37 38 34 35 32 41 45 40 36 36 34 33 32 31 32 32 33 34 35 36 37 39 40 41 42 40 38 39 40 37 37 38 39 39 39 43 46 43 43 47 52 57 63 65
22 21 19 24 34 37 37 31 30 28 36 41 37 35 37 37 36 35 34 34 34 35 37 39 40 40 41 42 42 39 38 38 38 37 37 37 36 36 39 41 40 40 39 44 48 54 59 54 54
26 29 26 27 29 36 37 33 28 25 26 31 37 36 35 36 39 41 43 45 45 45 44 43 42 43 42 40 38 37 37 37 37 36 35 34 34 35 35 37 38 36 39 45 51 54 48 48 51
23 22 26 24 27 29 32 33 29 28 27 26 30 33 33 35 35 36 37 39 39 40 40 40 39 38 37 35 35 37 38 37 36 34 33 33 33 34 35 36 34 35 39 45 48 42 43 47 53
23 21 18 22 23 24 23 28 26 26 26 26 24 28 30 31 32 32 34 36 37 36 36 35 34 34 34 34 36 37 36 34 33 34 34 32 33 35 35 34 34 37 42 44 42 37 38 45 54
Wind_Direction
209 210 210 210 208 205 205 209 207 210 208 214 211 211 221 227 230 233 225 219 225 227 228 231 240 249 268 276 272 276 279 280 279 280 284 290 294 297 299 299 301 306 306 304 304 305 305 305 307
209 208 209 210 208 205 206 214 212 210 210 210 213 216 217 218 224 231 230 228 229 232 238 243 250 255 263 269 274 274 276 280 284 287 293 297 297 295 296 299 303 303 300 303 305 304 301 299 298
209 207 208 209 208 203 206 211 212 212 208 208 214 216 218 215 220 227 224 224 238 240 242 247 251 254 259 265 272 276 275 278 284 292 293 291 293 298 301 303 304 304 305 306 304 301 299 301 301
209 208 207 209 207 200 209 217 211 207 207 206 215 220 221 213 223 229 228 230 239 241 243 248 253 257 259 259 261 274 283 282 284 287 291 297 300 303 303 304 303 302 302 303 304 305 305 304 303
215 211 207 207 204 203 209 214 219 205 206 207 214 220 219 217 221 227 225 227 234 244 243 248 254 258 261 262 263 264 269 283 289 294 298 298 300 302 303 304 306 307 305 304 305 304 303 303 303
214 216 209 206 205 198 214 212 217 213 210 210 214 219 220 220 223 228 230 228 231 242 249 252 255 258 259 259 262 263 266 273 290 295 295 298 299 299 301 304 306 306 305 307 304 300 299 300 300
207 213 214 208 203 198 214 219 219 214 211 219 222 217 219 222 223 228 233 234 236 243 250 255 258 260 262 266 268 276 279 278 281 288 293 292 292 297 301 304 307 307 305 303 300 298 297 296 295
212 209 211 212 206 202 209 218 219 222 213 218 227 220 221 225 230 231 232 230 238 247 251 254 256 259 265 270 274 276 281 288 290 289 290 292 299 300 305 309 308 304 306 306 303 300 298 294 293
221 210 204 210 209 206 209 217 219 216 219 218 228 226 223 223 229 233 239 237 239 247 252 252 255 259 264 271 277 282 287 289 291 291 291 289 296 301 307 308 309 310 309 305 302 299 297 296 297
213 215 193 196 202 204 210 208 225 216 221 220 228 231 230 232 229 231 236 240 241 240 244 251 255 260 269 276 279 283 287 287 288 290 291 294 298 301 302 304 304 304 303 301 299 299 299 299 298
211 205 188 194 207 194 192 214 214 223 218 223 220 224 227 226 229 233 234 237 239 242 240 243 252 260 266 271 276 281 285 287 289 292 295 298 302 303 300 296 294 298 302 301 299 299 298 296 295
215 218 214 208 199 204 212 205 209 217 218 222 225 226 225 227 223 227 232 235 236 239 245 247 251 260 265 270 277 282 283 284 286 289 292 298 303 303 300 300 297 295 295 295 295 295 295 294 294
220 217 220 222 210 201 208 210 215 211 216 220 224 224 228 229 230 228 231 235 239 240 244 249 253 256 260 267 272 277 281 282 282 287 293 297 298 297 297 297 294 293 290 289 289 291 291 290 291
224 221 215 222 223 218 216 222 214 222 214 218 224 223 223 229 228 231 230 234 237 243 245 249 253 260 266 270 273 271 273 277 282 285 288 293 293 292 290 289 291 292 291 288 285 287 289 290 290
221 227 223 218 220 213 217 224 216 225 225 224 221 229 224 226 231 229 232 234 236 239 247 256 256 260 265 271 274 275 274 274 278 284 280 280 284 286 287 290 291 291 292 293 292 290 289 287 287
217 224 227 213 222 219 218 215 212 221 225 225 226 224 226 225 228 231 233 237 242 243 245 253 263 268 271 271 272 274 275 278 278 279 283 286 287 288 291 293 294 293 292 291 290 289 288 285 285
217 220 232 221 217 216 216 218 221 224 225 223 225 227 226 228 228 230 232 237 241 247 247 250 263 271 272 268 269 273 276 275 278 282 282 284 288 291 294 294 296 293 292 291 289 288 287 288 286
229 226 231 228 222 217 217 222 227 227 230 229 227 229 231 230 232 233 233 235 240 246 255 256 250 254 264 273 274 270 277 280 280 281 284 284 285 287 288 290 290 291 291 292 290 288 286 284 284
223 223 224 225 228 225 221 223 228 228 228 231 235 231 230 231 232 233 233 237 244 249 253 258 263 263 261 261 264 270 273 276 281 280 282 285 286 287 287 286 286 285 286 287 288 287 287 285 284
225 223 224 223 225 224 222 225 228 229 228 226 231 234 231 232 235 237 239 242 248 251 253 256 260 264 266 267 269 270 268 268 274 282 286 287 286 285 286 285 286 285 286 285 284 285 285 283 283
226 227 228 227 227 229 224 219 224 231 231 227 229 234 237 235 234 236 240 245 250 254 255 257 259 261 263 265 265 267 272 273 272 272 275 280 284 287 286 285 286 287 287 287 285 285 282 280 279
228 222 223 229 229 230 229 226 220 223 231 231 227 232 238 240 241 239 241 248 252 253 255 258 259 261 261 263 264 267 270 274 276 275 275 274 275 279 283 286 286 286 285 287 288 288 287 285 284
219 225 227 227 228 227 224 231 225 226 231 233 228 232 237 244 243 243 243 246 248 250 253 256 259 259 258 260 262 263 268 271 275 277 277 279 279 280 283 284 286 287 288 290 288 288 287 287 285
224 230 231 227 229 234 229 233 228 229 227 226 229 231 233 234 239 241 243 242 243 245 246 249 250 252 256 260 263 266 268 271 272 275 277 278 279 281 282 284 285 287 288 287 287 287 289 289 288
226 227 225 229 227 230 225 230 228 224 224 223 222 224 228 230 235 237 241 241 243 246 247 249 253 258 262 263 265 268 270 271 273 274 276 280 281 282 282 282 285 288 289 290 290 290 290 290 289
214 220 230 234 232 231 232 229 224 230 220 219 220 221 224 228 232 235 238 241 243 247 248 253 258 261 261 262 264 267 269 270 272 275 277 278 279 278 282 286 291 291 292 293 295 294 294 292 293
244 229 240 236 235 236 237 233 227 226 225 219 220 223 227 231 236 240 243 246 249 252 255 259 259 260 261 262 264 266 266 268 270 272 275 275 278 281 287 289 289 292 292 297 300 299 299 298 300
231 242 242 236 236 238 238 238 236 230 227 224 225 226 231 236 241 244 247 250 254 256 257 257 257 259 261 263 264 264 267 269 270 271 269 273 279 286 286 289 292 291 296 302 305 308 304 302 306
228 240 234 233 233 237 243 241 241 243 242 236 233 229 233 235 239 242 243 246 251 254 257 259 260 261 261 261 263 265 267 269 267 265 272 278 283 284 291 294 294 297 301 307 313 315 313 310 312
225 231 227 235 233 234 240 245 245 245 244 246 243 238 240 243 244 245 249 252 255 257 258 259 259 260 261 262 264 267 269 265 265 270 276 278 276 286 290 293 294 301 305 308 316 316 318 317 316
Height
5810 5816 5822 5827 5835 5839 5844 5846 5848 5854 5859 5864 5869 5873 5874 5878 5879 5884 5887 5887 5888 5890 5892 5893 5895 5896 5897 5898 5898 5899 5899 5900 5900 5901 5901 5901 5900 5900 5899 5898 5898 5898 5897 5896 5895 5895 5894 5893 5892
5803 5808 5815 5820 5829 5835 5840 5841 5847 5851 5858 5864 5867 5868 5870 5873 5877 5879 5885 5886 5886 5889 5890 5891 5893 5895 5896 5897 5897 5898 5898 5898 5899 5899 5899 5898 5898 5898 5897 5897 5896 5895 5895 5893 5893 5892 5892 5891 5890
5794 5800 5809 5815 5823 5833 5836 5833 5841 5848 5853 5858 5861 5862 5863 5873 5876 5877 5882 5883 5884 5886 5888 5890 5891 5893 5894 5895 5895 5895 5896 5897 5897 5896 5896 5896 5896 5896 5895 5894 5894 5893 5892 5891 5891 5890 5889 5888 5887
5787 5794 5800 5809 5819 5828 5830 5831 5836 5842 5850 5853 5856 5858 5864 5870 5872 5874 5880 5882 5883 5884 5886 5888 5889 5890 5892 5893 5893 5893 5894 5894 5895 5895 5895 5894 5894 5893 5892 5892 5891 5891 5890 5889 5889 5888 5887 5885 5884
5783 5787 5792 5803 5814 5823 5821 5825 5832 5839 5843 5848 5850 5855 5861 5866 5868 5871 5876 5880 5880 5880 5883 5885 5886 5888 5889 5890 5891 5892 5893 5892 5892 5892 5892 5891 5891 5890 5890 5890 5889 5888 5887 5886 5886 5885 5883 5882 5881
5775 5782 5788 5800 5810 5814 5814 5820 5826 5835 5840 5844 5846 5851 5857 5862 5865 5867 5872 5877 5878 5879 5880 5882 5884 5885 5887 5888 5888 5889 5891 5891 5890 5889 5889 5889 5888 5888 5887 5887 5886 5885 5884 5884 5883 5881 5880 5879 5878
5768 5775 5788 5795 5802 5806 5810 5818 5823 5831 5840 5841 5840 5848 5853 5856 5860 5864 5868 5873 5875 5876 5878 5879 5881 5882 5883 5884 5885 5886 5886 5887 5887 5887 5886 5886 5886 5885 5884 5883 5883 5882 5881 5880 5879 5878 5876 5875 5873
5760 5768 5776 5786 5794 5803 5805 5809 5820 5827 5834 5834 5834 5844 5850 5855 5857 5860 5862 5868 5870 5871 5874 5875 5877 5878 5879 5880 5882 5883 5883 5883 5883 5884 5884 5882 5881 5880 5880 5879 5879 5879 5878 5876 5875 5874 5873 5871 5870
5755 5758 5768 5778 5786 5799 5794 5801 5808 5819 5825 5830 5830 5839 5846 5850 5853 5856 5858 5863 5867 5868 5869 5871 5872 5874 5875 5876 5877 5878 5879 5880 5880 5879 5879 5879 5878 5876 5876 5876 5875 5875 5873 5872 5871 5870 5869 5868 5867
5743 5754 5769 5779 5785 5786 5790 5795 5804 5812 5817 5822 5826 5835 5843 5845 5850 5852 5855 5857 5861 5865 5867 5867 5869 5871 5872 5873 5873 5874 5875 5875 5876 5875 5874 5875 5874 5874 5873 5872 5872 5871 5870 5869 5867 5867 5866 5865 5864
5740 5753 5767 5768 5774 5779 5785 5790 5796 5805 5810 5814 5821 5828 5835 5840 5843 5846 5849 5852 5856 5859 5863 5864 5865 5866 5869 5868 5869 5870 5870 5870 5871 5870 5870 5870 5869 5869 5869 5868 5868 5867 5866 5865 5864 5863 5862 5860 5859
5734 5744 5751 5756 5763 5771 5780 5783 5791 5797 5803 5808 5816 5821 5828 5832 5836 5840 5843 5846 5850 5854 5857 5859 5861 5862 5863 5863 5864 5865 5865 5866 5866 5866 5865 5866 5865 5864 5864 5864 5864 5863 5862 5860 5859 5858 5857 5855 5854
5726 5735 5741 5746 5753 5762 5771 5776 5783 5790 5796 5804 5809 5817 5823 5826 5832 5836 5838 5841 5845 5849 5851 5853 5856 5857 5858 5860 5861 5861 5862 5862 5862 5862 5860 5859 5861 5861 5860 5859 5859 5858 5856 5855 5853 5852 5852 5850 5849
5722 5724 5728 5731 5746 5755 5764 5770 5778 5784 5789 5796 5802 5810 5817 5821 5826 5830 5834 5837 5841 5842 5845 5848 5850 5851 5853 5854 5855 5857 5857 5857 5856 5857 5856 5855 5855 5856 5855 5854 5853 5851 5850 5849 5848 5846 5846 5845 5843
5711 5713 5720 5733 5742 5752 5760 5765 5778 5780 5784 5789 5796 5804 5812 5816 5819 5824 5827 5831 5834 5838 5839 5841 5844 5846 5848 5849 5850 5850 5851 5852 5852 5851 5852 5851 5850 5850 5849 5848 5847 5846 5844 5842 5842 5841 5840 5839 5836
5703 5709 5715 5730 5738 5747 5756 5765 5768 5772 5777 5786 5792 5797 5804 5808 5813 5817 5821 5824 5827 5831 5835 5837 5836 5838 5842 5843 5843 5843 5844 5844 5846 5845 5844 5843 5842 5842 5841 5840 5839 5838 5837 5837 5835 5834 5832 5831 5830
5696 5707 5714 5727 5736 5744 5752 5760 5762 5766 5771 5779 5785 5791 5796 5801 5806 5811 5815 5818 5821 5824 5829 5833 5833 5832 5833 5835 5837 5836 5836 5838 5838 5838 5838 5837 5836 5834 5832 5831 5831 5828 5828 5828 5826 5825 5823 5822 5821
5701 5710 5715 5722 5731 5737 5744 5751 5754 5760 5766 5773 5779 5786 5791 5796 5801 5805 5809 5813 5815 5819 5821 5823 5827 5828 5826 5826 5828 5831 5830 5830 5830 5830 5830 5829 5829 5829 5827 5824 5822 5820 5819 5818 5817 5815 5813 5812 5810
5694 5700 5708 5716 5722 5728 5739 5742 5747 5754 5761 5768 5774 5779 5784 5789 5793 5798 5804 5808 5811 5814 5816 5816 5816 5819 5822 5823 5823 5823 5824 5823 5822 5822 5823 5821 5819 5819 5818 5817 5816 5814 5811 5809 5806 5805 5803 5802 5798
5691 5696 5704 5708 5712 5722 5730 5737 5742 5748 5755 5761 5766 5771 5776 5781 5787 5793 5798 5803 5805 5805 5807 5809 5810 5811 5812 5814 5814 5816 5818 5818 5816 5813 5811 5810 5810 5810 5809 5807 5806 5804 5801 5800 5797 5794 5793 5792 5788
5690 5695 5698 5703 5711 5717 5724 5730 5736 5742 5748 5755 5761 5765 5769 5774 5778 5784 5790 5795 5796 5797 5799 5802 5803 5804 5805 5806 5807 5807 5807 5808 5809 5809 5807 5804 5800 5798 5797 5797 5796 5793 5790 5789 5786 5784 5782 5780 5778
5687 5690 5691 5698 5707 5713 5719 5725 5729 5734 5740 5747 5754 5758 5761 5767 5771 5777 5783 5786 5787 5789 5792 5793 5795 5796 5797 5798 5798 5799 5799 5798 5798 5799 5799 5797 5793 5790 5788 5786 5785 5783 5780 5777 5775 5772 5771 5769 5767
5682 5685 5690 5697 5701 5704 5712 5718 5726 5729 5735 5742 5748 5752 5755 5760 5764 5769 5774 5776 5779 5782 5784 5785 5786 5787 5788 5789 5790 5791 5790 5790 5788 5787 5788 5786 5784 5781 5778 5776 5774 5772 5770 5768 5765 5761 5757 5754 5752
5679 5683 5687 5692 5694 5698 5708 5712 5719 5724 5731 5735 5741 5746 5749 5752 5757 5761 5765 5768 5770 5772 5774 5776 5777 5779 5780 5781 5781 5781 5781 5780 5780 5779 5778 5776 5774 5773 5770 5767 5763 5761 5758 5756 5754 5750 5747 5742 5739
5676 5679 5682 5685 5688 5695 5702 5704 5714 5718 5724 5730 5734 5738 5741 5745 5749 5753 5756 5759 5762 5764 5766 5768 5769 5771 5771 5771 5771 5771 5771 5771 5770 5769 5768 5766 5764 5762 5760 5758 5755 5752 5748 5744 5741 5738 5734 5729 5724
5673 5677 5680 5681 5686 5693 5695 5697 5705 5710 5716 5721 5726 5730 5734 5738 5741 5744 5747 5751 5753 5755 5757 5760 5761 5762 5761 5762 5762 5762 5762 5761 5760 5759 5758 5756 5755 5753 5750 5748 5746 5741 5737 5733 5729 5725 5719 5712 5706
5671 5674 5678 5680 5682 5686 5690 5694 5698 5704 5707 5714 5718 5722 5726 5730 5733 5736 5739 5742 5745 5746 5748 5749 5751 5752 5752 5753 5753 5753 5752 5752 5751 5750 5748 5746 5745 5743 5740 5737 5734 5731 5727 5723 5717 5711 5703 5694 5688
5669 5672 5674 5675 5677 5681 5685 5688 5692 5697 5701 5706 5712 5715 5718 5721 5724 5728 5730 5732 5735 5736 5738 5739 5741 5741 5742 5743 5743 5743 5743 5742 5741 5740 5739 5737 5736 5733 5730 5727 5723 5720 5717 5711 5705 5697 5687 5681 5674
5667 5668 5670 5672 5674 5676 5680 5684 5688 5691 5694 5699 5703 5708 5711 5714 5716 5719 5720 5722 5724 5725 5727 5728 5730 5731 5732 5733 5733 5733 5733 5732 5732 5731 5730 5728 5726 5723 5720 5717 5713 5711 5706 5701 5693 5684 5676 5668 5660
5662 5664 5666 5667 5671 5673 5675 5680 5682 5685 5688 5692 5696 5700 5703 5705 5708 5710 5712 5714 5716 5717 5718 5719 5721 5722 5723 5724 5724 5724 5724 5724 5723 5722 5721 5719 5716 5714 5711 5708 5705 5700 5695 5689 5682 5674 5666 5658 5649